AAL1709 KCLT-KBOS

Flight info

Callsign AAL1709
Flight time N/A
Altitude 35000
Route BARMY5 RDU NOWAE Q87 GEARS BBOBO Q22 RBV Q419 JFK ROBUC3
Aircraft A321/M-SDE3FGHIRWY/LB1

Departure

Time N/A
Airport Charlotte Douglas International Airport (KCLT)

Arrival

Time 2026-05-06 18:59
Airport Boston Logan International Airport (KBOS)
Time Latitude Longitude Altitude Speed Heading
2026-05-06 18:28 41.17801 -72.96595 23231 ft 523 kts 45°
2026-05-06 18:28 41.20159 -72.92914 22940 ft 525 kts 51°
2026-05-06 18:29 41.22156 -72.88855 22773 ft 526 kts 60°
2026-05-06 18:29 41.23836 -72.84522 22599 ft 527 kts 62°
2026-05-06 18:29 41.25502 -72.80196 22359 ft 526 kts 62°
2026-05-06 18:29 41.27171 -72.75863 22129 ft 524 kts 62°
2026-05-06 18:30 41.28819 -72.71549 21874 ft 523 kts 62°
2026-05-06 18:30 41.30442 -72.67285 21666 ft 522 kts 62°
2026-05-06 18:30 41.32080 -72.62973 21418 ft 521 kts 62°
2026-05-06 18:30 41.33713 -72.58665 21138 ft 519 kts 63°
2026-05-06 18:31 41.35341 -72.54372 20888 ft 516 kts 63°
2026-05-06 18:31 41.36951 -72.50120 20883 ft 515 kts 63°
2026-05-06 18:31 41.38543 -72.45913 20886 ft 516 kts 63°
2026-05-06 18:31 41.40159 -72.41640 20888 ft 515 kts 63°
2026-05-06 18:32 41.41770 -72.37371 20887 ft 515 kts 63°
2026-05-06 18:32 41.43370 -72.33119 20890 ft 516 kts 63°
2026-05-06 18:32 41.44975 -72.28846 20889 ft 515 kts 63°
2026-05-06 18:32 41.46581 -72.24564 20873 ft 516 kts 63°
2026-05-06 18:33 41.48185 -72.20277 20891 ft 517 kts 63°
2026-05-06 18:33 41.49781 -72.15986 20662 ft 517 kts 63°
2026-05-06 18:33 41.51363 -72.11678 20417 ft 515 kts 63°
2026-05-06 18:33 41.52923 -72.07381 20168 ft 514 kts 64°
2026-05-06 18:34 41.54475 -72.03092 19932 ft 512 kts 63°
2026-05-06 18:34 41.56011 -71.98809 19696 ft 511 kts 64°
2026-05-06 18:34 41.57451 -71.94479 19318 ft 509 kts 67°
2026-05-06 18:34 41.58781 -71.90109 18711 ft 505 kts 69°
2026-05-06 18:35 41.60027 -71.85756 18151 ft 500 kts 70°
2026-05-06 18:35 41.61231 -71.81424 17583 ft 492 kts 70°
2026-05-06 18:35 41.62401 -71.77232 17431 ft 472 kts 70°
2026-05-06 18:35 41.63534 -71.73257 17294 ft 455 kts 69°
2026-05-06 18:36 41.64661 -71.69391 17171 ft 438 kts 69°
2026-05-06 18:36 41.65765 -71.65668 17042 ft 422 kts 69°
2026-05-06 18:36 41.66826 -71.62104 16775 ft 405 kts 69°
2026-05-06 18:36 41.67855 -71.58647 16413 ft 397 kts 69°
2026-05-06 18:37 41.68866 -71.55223 16147 ft 394 kts 70°
2026-05-06 18:37 41.69861 -71.51817 15898 ft 391 kts 71°
2026-05-06 18:37 41.70843 -71.48437 15652 ft 389 kts 71°
2026-05-06 18:37 41.71824 -71.45066 15469 ft 389 kts 71°
2026-05-06 18:38 41.72959 -71.41779 15167 ft 389 kts 61°
2026-05-06 18:38 41.74299 -71.38641 14840 ft 387 kts 61°
2026-05-06 18:38 41.75637 -71.35519 14515 ft 386 kts 61°
2026-05-06 18:38 41.76974 -71.32407 14184 ft 384 kts 62°
2026-05-06 18:39 41.78303 -71.29310 13859 ft 383 kts 62°
2026-05-06 18:39 41.79629 -71.26220 13514 ft 382 kts 62°
2026-05-06 18:39 41.80940 -71.23146 13196 ft 379 kts 62°
2026-05-06 18:40 41.83537 -71.17034 12555 ft 375 kts 63°
2026-05-06 18:40 41.84815 -71.14019 12283 ft 367 kts 63°
2026-05-06 18:40 41.86070 -71.11066 11985 ft 362 kts 63°
2026-05-06 18:40 41.87318 -71.08162 11837 ft 359 kts 63°
2026-05-06 18:41 41.88570 -71.05267 11669 ft 358 kts 63°
2026-05-06 18:41 41.89820 -71.02378 11517 ft 358 kts 63°
2026-05-06 18:41 41.91067 -70.99498 11353 ft 357 kts 63°
2026-05-06 18:41 41.92314 -70.96622 11203 ft 356 kts 63°
2026-05-06 18:42 41.93552 -70.93757 11037 ft 354 kts 63°
2026-05-06 18:42 41.94784 -70.90895 10880 ft 353 kts 64°
2026-05-06 18:42 41.96008 -70.88043 10708 ft 352 kts 64°
2026-05-06 18:42 41.97207 -70.85238 10555 ft 350 kts 64°
2026-05-06 18:43 41.98415 -70.82404 10405 ft 349 kts 64°
2026-05-06 18:43 41.99621 -70.79583 10264 ft 348 kts 64°
2026-05-06 18:43 42.00858 -70.76779 10095 ft 350 kts 59°
2026-05-06 18:43 42.02396 -70.74224 9751 ft 353 kts 50°
2026-05-06 18:44 42.04030 -70.71785 9390 ft 349 kts 50°
2026-05-06 18:44 42.05650 -70.69370 9055 ft 346 kts 50°
2026-05-06 18:44 42.07256 -70.66981 8733 ft 343 kts 50°
2026-05-06 18:44 42.08861 -70.64609 8408 ft 341 kts 47°
2026-05-06 18:45 42.10690 -70.62596 8085 ft 339 kts 31°
2026-05-06 18:45 42.12794 -70.61201 7764 ft 335 kts 15°
2026-05-06 18:45 42.15023 -70.60438 7447 ft 329 kts
2026-05-06 18:45 42.16506 -70.60033 7263 ft 327 kts
2026-05-06 18:46 42.19464 -70.59217 6862 ft 325 kts
2026-05-06 18:46 42.21671 -70.58605 6549 ft 323 kts
2026-05-06 18:46 42.23864 -70.57994 6202 ft 321 kts
2026-05-06 18:46 42.26047 -70.57380 5840 ft 319 kts
2026-05-06 18:47 42.28214 -70.56770 5469 ft 317 kts
2026-05-06 18:47 42.30378 -70.56441 5103 ft 308 kts 351°
2026-05-06 18:47 42.32443 -70.56905 4732 ft 295 kts 333°
2026-05-06 18:47 42.34258 -70.58034 4362 ft 281 kts 316°
2026-05-06 18:48 42.35736 -70.59646 4011 ft 267 kts 304°
2026-05-06 18:48 42.37055 -70.61391 3702 ft 263 kts 304°
2026-05-06 18:48 42.38348 -70.63092 3389 ft 261 kts 304°
2026-05-06 18:48 42.39642 -70.64789 3084 ft 258 kts 304°
2026-05-06 18:49 42.40932 -70.66481 3005 ft 258 kts 304°
2026-05-06 18:49 42.42227 -70.68188 3010 ft 260 kts 304°
2026-05-06 18:49 42.43527 -70.69902 3009 ft 261 kts 304°
2026-05-06 18:49 42.44825 -70.71621 3011 ft 260 kts 304°
2026-05-06 18:50 42.46124 -70.73338 3009 ft 260 kts 305°
2026-05-06 18:50 42.47407 -70.75026 3005 ft 260 kts 305°
2026-05-06 18:50 42.48707 -70.76736 3005 ft 260 kts 305°
2026-05-06 18:50 42.50008 -70.78433 3002 ft 255 kts 304°
2026-05-06 18:51 42.51266 -70.80027 3003 ft 241 kts 309°
2026-05-06 18:51 42.52766 -70.81085 3011 ft 253 kts 334°
2026-05-06 18:51 42.54588 -70.81150 3012 ft 275 kts
2026-05-06 18:51 42.56400 -70.80346 3014 ft 268 kts
2026-05-06 18:52 42.58164 -70.80270 3001 ft 244 kts 334°
2026-05-06 18:52 42.59579 -70.81332 3015 ft 223 kts 301°
2026-05-06 18:52 42.60364 -70.82966 3010 ft 200 kts 280°
2026-05-06 18:52 42.60666 -70.84729 3005 ft 186 kts 263°
2026-05-06 18:53 42.60537 -70.86434 3008 ft 178 kts 248°
2026-05-06 18:53 42.60039 -70.87946 2999 ft 172 kts 234°
2026-05-06 18:53 42.59223 -70.89168 3008 ft 177 kts 218°
2026-05-06 18:53 42.58170 -70.89977 3008 ft 177 kts 204°
2026-05-06 18:54 42.57004 -70.90550 3012 ft 179 kts 205°
2026-05-06 18:54 42.55835 -70.91119 3012 ft 175 kts 204°
2026-05-06 18:54 42.54757 -70.91642 3010 ft 154 kts 205°
2026-05-06 18:54 42.53799 -70.92106 3001 ft 141 kts 205°
2026-05-06 18:55 42.52855 -70.92568 3015 ft 159 kts 204°
2026-05-06 18:55 42.51762 -70.93101 2946 ft 170 kts 204°
2026-05-06 18:55 42.50702 -70.93612 2777 ft 152 kts 204°
2026-05-06 18:55 42.49739 -70.94078 2616 ft 143 kts 204°
2026-05-06 18:56 42.48809 -70.94532 2428 ft 141 kts 202°
2026-05-06 18:56 42.47884 -70.94982 2242 ft 142 kts 201°
2026-05-06 18:56 42.46962 -70.95430 2063 ft 143 kts 201°
2026-05-06 18:56 42.46042 -70.95877 1862 ft 135 kts 200°
2026-05-06 18:57 42.45164 -70.96303 1692 ft 131 kts 201°
2026-05-06 18:57 42.44316 -70.96715 1499 ft 128 kts 200°
2026-05-06 18:57 42.43473 -70.97124 1341 ft 128 kts 200°
2026-05-06 18:57 42.42631 -70.97533 1170 ft 128 kts 200°
2026-05-06 18:58 42.41783 -70.97944 978 ft 131 kts 201°
2026-05-06 18:58 42.40923 -70.98363 811 ft 130 kts 201°
2026-05-06 18:58 42.40056 -70.98785 665 ft 132 kts 199°
2026-05-06 18:58 42.39161 -70.99206 458 ft 137 kts 199°
2026-05-06 18:59 42.38297 -70.99616 261 ft 131 kts 201°
2026-05-06 18:59 42.37456 -71.00046 84 ft 128 kts 198°
2026-05-06 18:59 42.36659 -71.00429 28 ft 109 kts 198°
2026-05-06 18:59 42.36249 -71.00627 28 ft 26 kts 202°
2026-05-06 19:00 42.36150 -71.00779 29 ft 22 kts 268°
2026-05-06 19:00 42.36202 -71.00978 27 ft 23 kts 294°
2026-05-06 19:00 42.36263 -71.01150 28 ft 17 kts 297°
2026-05-06 19:00 42.36298 -71.01236 24 ft 12 kts 301°
2026-05-06 19:01 42.36345 -71.01337 26 ft 7 kts 303°
2026-05-06 19:01 42.36348 -71.01416 30 ft 7 kts 227°
2026-05-06 19:01 42.36318 -71.01438 27 ft 8 kts 201°
2026-05-06 19:01 42.36243 -71.01477 27 ft 10 kts 201°
2026-05-06 19:02 42.36215 -71.01490 27 ft 5 kts 199°
2026-05-06 19:02 42.36180 -71.01507 27 ft 6 kts 199°
2026-05-06 19:02 42.36137 -71.01529 25 ft 7 kts 201°
2026-05-06 19:02 42.36086 -71.01555 26 ft 8 kts 200°
2026-05-06 19:03 42.36028 -71.01582 27 ft 9 kts 198°
2026-05-06 19:03 42.35961 -71.01611 25 ft 11 kts 198°
2026-05-06 19:03 42.35906 -71.01658 26 ft 9 kts 244°
2026-05-06 19:03 42.35910 -71.01748 25 ft 10 kts 282°
2026-05-06 19:04 42.35932 -71.01845 28 ft 12 kts 292°
2026-05-06 19:04 42.35973 -71.01943 28 ft 13 kts 301°
2026-05-06 19:04 42.36019 -71.02050 28 ft 14 kts 300°
2026-05-06 19:04 42.36073 -71.02155 28 ft 13 kts 304°
2026-05-06 19:05 42.36122 -71.02260 28 ft 14 kts 322°
2026-05-06 19:05 42.36203 -71.02268 25 ft 7 kts 15°
2026-05-06 19:05 42.36224 -71.02228 28 ft 5 kts 116°
2026-05-06 19:05 42.36211 -71.02203 27 ft 3 kts 127°
2026-05-06 19:06 42.36204 -71.02191 29 ft 1 kts 129°
2026-05-06 19:06 42.36200 -71.02184 29 ft 1 kts 129°
2026-05-06 19:06 42.36198 -71.02181 29 ft 0 kts 130°
2026-05-06 19:06 42.36197 -71.02180 29 ft 0 kts 130°